Content
SEND FEEDBACK

Daily
Averages
Monthly
Summary
United States of America

AGAT, GUAM


Home > North America > United States > Guam
Elevation: 364 feet     Latitude: 13 33N     Longitude: 144 50E

WEATHER
 
SELECT A DAY
Number of Records: 208,892;   Date Range: 1/1/95 - 7/22/14
 
SHARE

PRINT THIS DATA

[ ← Previous Day ]
WEATHER ALMANAC - SEPTEMBER 15, 2013
[ Next Day → ]
[ °C ]   °F
Weather ElementAverageHighLow
Temperature82.9 °F89.1 °F (12:54 pm)75.9 °F (3:54 am)
Dewpoint75.4 °F77 °F (11:22 am)73.9 °F (1:54 am)
Humidity78.5 %94 % (3:54 am)61 % (12:54 pm)
Barometer29.77 in29.82 in (8:54 am)29.72 in (2:54 pm)
Wind Speed5.6 mph11.5 mph (2:54 pm)
Wind Gust17.3 mph (3:54 pm)
Weather ElementAverage
Visibility9.7 mi
Wind DirectionSSW (196.7 °)

Weather ElementTotal
Precipitation0.20 in
Cooling Degree Days17.5 (Base 65)
Growing Degree Days32.5 (Base 50)
Averaged from 27 records on September 15, 2013
WEATHER CONDITIONS BREAKOUT
WIND DIRECTION BREAKOUT
WEATHER BY HOUR - SEPTEMBER 15, 2013
[ °C ]   °F
Local TimeTemperatureDewpointHumidityBarometerVisibilityWind DirectionWind SpeedGust SpeedPrecipitationEventsConditions
1:54 AM78.1 °F73.9 °F87 %29.76 in10.0 miCalmClear
2:54 AM77.0 °F73.9 °F90 %29.75 in10.0 miCalmClear
3:54 AM75.9 °F73.9 °F94 %29.75 in10.0 miCalmClear
4:54 AM80.1 °F75.9 °F87 %29.76 in10.0 miENE (70°)5.8 mphClear
5:54 AM80.1 °F75.9 °F87 %29.76 in10.0 miENE (60°)3.5 mphClear
6:54 AM82.0 °F75.9 °F82 %29.79 in10.0 miCalmClear
7:54 AM84.9 °F75.9 °F74 %29.81 in10.0 miNE (50°)3.5 mphClear
8:54 AM84.9 °F73.9 °F69 %29.82 in10.0 miEast (100°)3.5 mphPartly Cloudy
9:54 AM86.0 °F73.9 °F67 %29.81 in10.0 miCalmScattered Clouds
10:38 AM84.2 °F75.2 °F74 %29.82 in10.0 miWNW (290°)5.8 mphMostly Cloudy
10:54 AM84.0 °F75.0 °F74 %29.80 in6.0 miNorth (360°)8.1 mphRainLight Rain
11:22 AM80.6 °F77.0 °F89 %29.81 in7.0 miSSW (200°)4.6 mph0.10 inRainLight Rain
11:54 AM84.9 °F75.9 °F74 %29.77 in10.0 miCalm0.10 inScattered Clouds
12:54 PM89.1 °F73.9 °F61 %29.75 in10.0 miWNW (290°)6.9 mphScattered Clouds
1:54 PM87.1 °F77.0 °F72 %29.73 in10.0 miWest (270°)9.2 mph0.00 inMostly Cloudy
2:54 PM87.1 °F77.0 °F72 %29.72 in10.0 miWest (260°)11.5 mphMostly Cloudy
3:54 PM87.1 °F75.9 °F69 %29.72 in10.0 miWest (280°)9.2 mph17.3 mph0.00 inScattered Clouds
4:54 PM87.1 °F75.9 °F69 %29.73 in10.0 miWest (280°)9.2 mphScattered Clouds
5:54 PM82.9 °F73.9 °F74 %29.74 in10.0 miWNW (290°)8.1 mphPartly Cloudy
6:49 PM82.4 °F75.2 °F79 %29.78 in10.0 miWNW (290°)6.9 mphThunderstormThunderstorm
6:54 PM82.9 °F75.0 °F77 %29.76 in10.0 miWNW (290°)6.9 mphThunderstormThunderstorm
7:05 PM82.4 °F75.2 °F79 %29.78 in10.0 miNorth (360°)5.8 mphPartly Cloudy
7:54 PM81.0 °F75.0 °F82 %29.75 in10.0 miNNW (330°)5.8 mphPartly Cloudy
8:54 PM82.0 °F77.0 °F85 %29.77 in10.0 miNW (310°)10.4 mphPartly Cloudy
9:54 PM81.0 °F75.9 °F85 %29.78 in10.0 miWNW (300°)11.5 mphPartly Cloudy
10:54 PM82.0 °F75.9 °F82 %29.78 in10.0 miNW (310°)6.9 mphOvercast
11:54 PM82.0 °F77.0 °F85 %29.76 in10.0 miNW (320°)9.2 mphMostly Cloudy
Hourly data recorded from PGUM, located miles away from Agat, Guam







STORIES FROM OUR PARTNERS